Location: Niles Junction
(37.5763°N, 121.9714°W)
Time: 04:32:47
(UTC+00:00)

Cosmos 1300 - Pass Details

Date: 29 October 2020
Orbit: 511 x 513 km, 82.5° (Epoch: 23 November)

Event Time Altitude Azimuth Distance (km) Brightness Sun altitude
Exits shadow 12:46:08 - 355° (N) 2,019 5.6 -21.2°
Reaches altitude 10° 12:46:48 10° 355° (N) 1,741 5.3 -21.1°
Maximum altitude 12:50:38 79° 83° (E) 526 2.7 -20.3°
Drops below altitude 10° 12:54:25 10° 170° (S) 1,726 5.5 -19.6°
Sets 12:56:32 0° 172° (S) 2,607 6.4 -19.1°
